Flag for Belgium Weather past 2 weeks in Charleroi, Belgium

Now
70 °F

Clear.


Feels Like: 70 °F
Forecast: 64 / 79 °F
Wind: 3 mph from North

Location: Charleroi / Gosselies

Current Time: Aug 1, 2014 at 10:24:03 AM

Latest Report: Aug 1, 2014 at 9:50 AM


Visibility: 6 mi

Pressure: 29.89 "Hg

Humidity: 73%

Dew point: 61 °F

Location of CharleroiLocation

Historic Weather in Charleroi — Graph

°F

Charleroi temperature yesterday

Maximum temperature yesterday: 77 °F (at 3:50 PM)
Minimum temperature yesterday: 52 °F (at 6:20 AM)
Average temperature yesterday: 65 °F

Past Weeks' High & Low Weather Summary

 TemperatureHumidityPressure
High91 °F (Jul 18, 4:20 PM)100% (Jul 21, 1:50 AM)30.18 "Hg (Jul 21, 1:50 AM)
Low52 °F (Jul 31, 6:20 AM)34% (Jul 18, 4:20 PM)29.80 "Hg (Jul 19, 7:20 PM)
Average69 °F73%29.97 "Hg
* Reported Jul 17 8:20 AM — Aug 1 8:50 AM, Charleroi, Weather by CustomWeather, © 2014

Note: Actual official high and low records may vary slightly from our data, if they occured in-between our weather recording intervals... More about our weather records

Advertising

Charleroi weather history for previous 24 hours

 ConditionsComfort  
Time TempWeatherWind HumidityBarometerVisibility
8:50 AM
Aug 1
64 °FClear.2 mph83%29.89 "Hg4 mi
8:20 AM63 °FClear.2 mph83%29.89 "Hg4 mi
7:50 AM61 °FClear.5 mph88%29.89 "Hg4 mi
7:20 AM61 °FClear.2 mph94%29.89 "HgN/A
6:50 AM59 °FClear.2 mph88%29.89 "Hg10 mi
6:20 AM59 °FClear.2 mph88%29.89 "Hg10 mi
5:50 AM59 °FClear.1 mph88%29.89 "Hg10 mi
5:20 AM59 °FClear.1 mph88%29.92 "Hg10 mi
4:50 AM59 °FClear.2 mph94%29.92 "Hg10 mi
4:20 AM61 °FClear.3 mph88%29.92 "Hg10 mi
3:50 AM61 °FClear.1 mph88%29.92 "Hg10 mi
3:20 AM61 °FClear.2 mph88%29.92 "Hg10 mi
2:50 AM63 °FClear.2 mph77%29.92 "Hg10 mi
2:20 AM63 °FClear.5 mph83%29.92 "Hg10 mi
1:50 AM63 °FClear.6 mph83%29.92 "Hg10 mi
1:20 AM63 °FClear.6 mph83%29.92 "Hg10 mi
12:50 AM64 °FPassing clouds.5 mph73%29.95 "HgN/A
12:20 AM64 °FClear.2 mph78%29.95 "Hg10 mi
11:50 PM
Jul 31
66 °FClear.2 mph73%29.92 "Hg10 mi
11:20 PM66 °FClear.2 mph68%29.95 "Hg10 mi
10:50 PM68 °FClear.2 mph60%29.95 "Hg10 mi
10:20 PM68 °FSunny.2 mph64%29.95 "Hg10 mi
9:50 PM68 °FSunny.2 mph64%29.95 "Hg10 mi
9:20 PM70 °FSunny.3 mph60%29.95 "Hg10 mi
8:50 PM72 °FSunny.3 mph53%29.95 "Hg10 mi
8:20 PM72 °FPassing clouds.6 mph57%29.95 "HgN/A
7:50 PM73 °FPassing clouds.6 mph50%29.95 "HgN/A
7:20 PM75 °FPassing clouds.7 mph47%29.95 "HgN/A
6:50 PM75 °FPassing clouds.8 mph47%29.95 "HgN/A
6:20 PM75 °FPassing clouds.7 mph47%29.95 "HgN/A
5:50 PM77 °FPassing clouds.7 mph44%29.95 "HgN/A
5:20 PM77 °FPassing clouds.7 mph44%29.95 "HgN/A
4:50 PM77 °FPassing clouds.6 mph42%29.95 "HgN/A
4:20 PM77 °FPassing clouds.7 mph44%29.98 "HgN/A
3:50 PM77 °FPassing clouds.8 mph44%29.98 "HgN/A
3:20 PM75 °FPassing clouds.3 mph44%29.98 "HgN/A
2:50 PM75 °FPassing clouds.7 mph41%29.98 "HgN/A
2:20 PM75 °FPassing clouds.7 mph39%29.98 "HgN/A
1:50 PM73 °FSunny.6 mph41%30.01 "Hg10 mi
1:20 PM73 °FPassing clouds.6 mph47%30.01 "HgN/A
12:50 PM73 °FSunny.3 mph50%30.01 "Hg10 mi
12:20 PM72 °FSunny.3 mph53%30.01 "Hg10 mi
11:50 AM70 °FSunny.3 mph57%30.04 "Hg10 mi
11:20 AM68 °FSunny.3 mph56%30.04 "Hg10 mi
10:50 AM68 °FSunny.2 mph56%30.04 "Hg10 mi
10:20 AM66 °FSunny.2 mph64%30.04 "Hg10 mi
Weather by CustomWeather, © 2014

See weather overviewHow to use our weather pages